Вернуться в каталог

STARLINK-3330

АктивенСвязьVLEO
NORAD 50836·PAYLOAD·🇺🇸 United States

Запущен Jan 6, 2022 с Cape Canaveral Space Force Station

Loading…

Ближайшие Пролёты (ближайшие 24 часа)

TLE

СвежийSource: CelesTrak SupGP

Эпоха: Sep 14, 2026, 21:22 UTC

1 50836C 22001AK  26257.89076389  .00014885  00000+0  47868-3 0  2577
2 50836  53.1585  35.8932 0001154  80.0819 263.4770 15.31693001    17

Отслеживайте STARLINK-3330 в реальном времени с AllMySat

Download on the App Store